STARLINK-11252 [DTC]

Last updated on Mon Oct 14 2024 00:02:03 GMT+0000 (Coordinated Universal Time)

1 61051U 24164B 24287.46227544 -.00010794 00000+0 -62057-4 0 9993 2 61051 53.1536 316.6792 0001799 105.5380 254.5839 15.76717296 5901
UTC large
Height (km)
Speed (km/s)
/
Latitude / Longitude
Inclination (degrees)
Orbital Period (minutes)
Azimuth
Elevation
Range (km)
Doppler Factor

Next 0 passes for location: London (51.5072 / 0.1276)

Sorry there are no passes over London.